Air Sicilia Virtual Airways - Route

Air Sicilia Virtual Airways - SIC018A

( IT ) LIMJ - 00:00
Genoa Cristoforo Colombo Airport
GENOVA ( GOA )
plane_to ( IT ) LIEE - 00:00
Cagliari Elmas Airport
CAGLIARI ( CAG )

AIRPORT NEAR NAVIGATION AIDS

Type Name Frequency
VOR-DME Genova 112800 KHZ
NDB Genova 318 KHZ
VOR-DME Genova Sestri 108600 KHZ

METAR / TAF
LIMJ 211720Z 34005KT 300V020 CAVOK 33/15 Q1013
LIMJ 211100Z 2112/2212 VRB05KT CAVOK

RUNWAY INFORMATION

Runway Runway length Runway width Runway elevation Runway displaced threshold Runway heading
10 9564 148 9 0 105
28 9564 148 12 528 285

AIRPORT FREQUENCIES

Type Name Frequency
APP APP 119.6 MHZ
ATIS ATIS 122.825 MHZ
TWR TWR 118.6 MHZ

AIRPORT NEAR NAVIGATION AIDS

Type Name Frequency
VOR-DME Cagliari 113400 KHZ
NDB Cagliari 371 KHZ

METAR / TAF
LIEE 211720Z 31006KT CAVOK 21/19 Q1013
LIEE 211100Z 2112/2212 16010KT 9999 SCT030 TEMPO 2112/2118 4000 TSRA BECMG 2118/2120 VRB04KT

RUNWAY INFORMATION

Runway Runway length Runway width Runway elevation Runway displaced threshold Runway heading
14 9196 148 9 0 138
32 9196 148 4 0 318

AIRPORT FREQUENCIES

Type Name Frequency
APP CAGLIARI A 118.75 MHZ
GND Elmas GND 125.425 MHZ
MISC SAR 123.1 MHZ
TWR TWR 120.6 MHZ

Flightplan

VFR

Air Sicilia Virtual Airways Fleets

AVAILABLE AIRCRAFTS for route at this time in Genoa Cristoforo Colombo Airport
PC12 - Pilatus PC12 Eagle
( CH ) Pilatus

Aircraft in fleet: 1

310.416 NM

Distance in nautical miles.

€ 258,00

Ticket price for this flight.

0 h.

Estimated flight time.



07-08-2018
Aerosoft Professional Flight Planner PFPX

PFPX - Professional Flight Planner X - è un nuovo ed innovativo strumento di pianificazione del volo sviluppato da piloti e dispatcher del mondo reale. È un'aggiunta preziosa e realistica alla tua esperienza di simulaz ....


19-07-2018
Aerosoft Oslo X

L'Aeroporto di Oslo-Gardermoen (IATA: OSL, ICAO: ENGM) è il principale aeroporto norvegese e il 19° in Europa, è situato vicino alla cittadina di Ullensaker nella contea di Akershus e serve la capitale Oslo. Ha sostit ....


21-06-2018
Aerosoft Malpensa Professional P3Dv4

L'Aeroporto di Milano-Malpensa (IATA: MXP, ICAO: LIMC) è un aeroporto italiano situato nella provincia di Varese in Lombardia, ma considerato come il principale aeroporto di Milano.

È il secondo aeroporto ital ....


06-06-2018
1° Raduno Air Sicilia Virtual - parla il C.E.O.

Grande successo per il 1° Raduno di Compagnia dell'Air Sicilia Virtual, che ha visto i membri della Crew presenti il 4 giugno 2018 a Thiene ( VI ) , cimentarsi dal vivo con le reali ....


24-05-2018
Aerosoft Airport Rome XP

Tra le nostre recensioni non poteva mancare certo la nuova uscita Aerosoft per X-Plane, stiamo parlando di Airport Rome XP, finalmente un Add-on pay completo dell'Aeroporto di Roma Fiumicino per gli utilizzatori del simu ....